Weather History for Highgate, VT

Change the Weather History Date:

Friday, September 27, 2013

  Actual Average (KPBG) Record (KPBG)
Temperature  
Mean Temperature 55 °F 54 °F  
Max Temperature 59 °F 65 °F 77 °F (1948)
Min Temperature 49 °F 44 °F 30 °F (1956)
Degree Days  
Heating Degree Days 10 11  
Month to date heating degree days 160  
Since 1 July heating degree days 201  
Cooling Degree Days 0 0  
Month to date cooling degree days 19  
Year to date cooling degree days 341  
Growing Degree Days 5 (Base 50)    
Moisture  
Dew Point 50 °F    
Average Humidity 86    
Maximum Humidity 90    
Minimum Humidity 68    
Precipitation  
Precipitation 0.00 in - 1.60 in (1985)
Month to date precipitation  
Year to date precipitation  
Sea Level Pressure  
Sea Level Pressure 30.25 in    
Wind  
Wind Speed 1 mph (North)    
Max Wind Speed 8 mph    
Max Gust Speed -    
Visibility 10 miles    
Events      
T = Trace of Precipitation, MM = Missing Value Source: NWS Daily Summary

Daily Weather History Graph

Daily Weather History Graph

Search for Another Location

Airport:

Trip Planner

Search our weather history database for the weather conditions in past years. The results will help you decide how hot, cold, wet, or windy it might be!

Date:

Astronomy

Sep. 27, 2013 Rise Set
Actual Time 6:45 AM EDT 6:40 PM EDT
Civil Twilight 6:16 AM EDT 7:09 PM EDT
Nautical Twilight 5:42 AM EDT 7:43 PM EDT
Astronomical Twilight 5:07 AM EDT 8:17 PM EDT
Moon No Moon Rise 2:30 PM EDT (9/27)
Length of Visible Light 12h 52m
Length of Day
11h 54m
Last Quarter, 45% of the Moon is Illuminated
Sep 27
Last Quarter
Oct 4
New
Oct 11
First Quarter
Oct 18
Full
Oct 26
Last Quarter

Hourly Weather History & Observations

Time (EDT) Temp. Dew Point Humidity Pressure Visibility Wind Dir Wind Speed Gust Speed Precip Events Conditions
12:15 AM 55.0 °F 49.6 °F 82% 30.18 in 10.0 mi Calm Calm - N/A   Overcast
12:35 AM 54.5 °F 49.3 °F 83% 30.18 in 10.0 mi Calm Calm - N/A   Overcast
12:55 AM 54.5 °F 49.3 °F 83% 30.18 in 10.0 mi Calm Calm - N/A   Overcast
1:15 AM 54.5 °F 49.5 °F 83% 30.18 in 10.0 mi Calm Calm - N/A   Overcast
1:35 AM 54.5 °F 50.0 °F 85% 30.19 in 10.0 mi Calm Calm - N/A   Overcast
1:55 AM 54.5 °F 50.2 °F 85% 30.19 in 10.0 mi Calm Calm - N/A   Overcast
2:15 AM 54.5 °F 50.4 °F 86% 30.19 in 10.0 mi Calm Calm - N/A   Overcast
2:35 AM 54.5 °F 49.5 °F 83% 30.19 in 10.0 mi Calm Calm - N/A   Overcast
2:55 AM 54.5 °F 49.8 °F 84% 30.18 in 10.0 mi Calm Calm - N/A   Overcast
3:15 AM 54.5 °F 50.4 °F 86% 30.19 in 10.0 mi Calm Calm - N/A   Overcast
3:35 AM 54.5 °F 50.5 °F 86% 30.19 in 10.0 mi Calm Calm - N/A   Overcast
3:55 AM 54.5 °F 50.5 °F 86% 30.19 in 10.0 mi Calm Calm - N/A   Overcast
4:15 AM 54.5 °F 50.9 °F 88% 30.20 in 10.0 mi Calm Calm - N/A   Overcast
4:35 AM 54.5 °F 50.9 °F 88% 30.20 in 10.0 mi Calm Calm - N/A   Overcast
4:55 AM 54.5 °F 50.9 °F 88% 30.20 in 10.0 mi Calm Calm - N/A   Overcast
5:15 AM 54.5 °F 50.9 °F 88% 30.21 in 10.0 mi Calm Calm - N/A   Overcast
5:35 AM 54.5 °F 50.9 °F 88% 30.22 in 10.0 mi Calm Calm - N/A   Overcast
5:55 AM 54.5 °F 50.9 °F 88% 30.22 in 10.0 mi Calm Calm - N/A   Overcast
6:15 AM 54.5 °F 50.9 °F 88% 30.22 in 10.0 mi Calm Calm - N/A   Overcast
6:35 AM 54.5 °F 50.4 °F 86% 30.23 in 10.0 mi Calm Calm - N/A   Overcast
6:55 AM 54.5 °F 50.4 °F 86% 30.24 in 5.0 mi Calm Calm - N/A   Overcast
7:15 AM 54.5 °F 50.9 °F 88% 30.24 in 10.0 mi Calm Calm - N/A   Overcast
7:35 AM 54.5 °F 50.9 °F 88% 30.25 in 10.0 mi Calm Calm - N/A   Overcast
7:55 AM 54.5 °F 50.4 °F 86% 30.25 in 10.0 mi Calm Calm - N/A   Scattered Clouds
8:15 AM 54.7 °F 50.0 °F 84% 30.26 in 10.0 mi Calm Calm - N/A   Scattered Clouds
8:35 AM 56.8 °F 50.2 °F 78% 30.26 in 10.0 mi NNE 3.5 mph - N/A   Clear
8:55 AM 56.8 °F 47.8 °F 72% 30.27 in 10.0 mi NNE 4.6 mph - N/A   Clear
9:15 AM 59.4 °F 48.9 °F 68% 30.27 in 10.0 mi NNE 4.6 mph - N/A   Clear
9:35 AM - - N/A% 30.28 in 10.0 mi ENE 6.9 mph - N/A   Clear
9:55 AM - - N/A% 30.28 in 10.0 mi NE 8.1 mph - N/A   Mostly Cloudy
10:15 AM - - N/A% 30.28 in 10.0 mi NE 5.8 mph - N/A   Overcast
10:35 AM - - N/A% 30.28 in 10.0 mi North 3.5 mph - N/A   Overcast
10:55 AM - - N/A% 30.28 in 10.0 mi NNE 5.8 mph - N/A   Overcast
11:15 AM - - N/A% 30.29 in 10.0 mi Calm Calm - N/A   Overcast
11:35 AM - - N/A% 30.29 in 10.0 mi East 3.5 mph - N/A   Overcast
11:55 AM - - N/A% 30.28 in 10.0 mi East 4.6 mph - N/A   Overcast
12:15 PM - - N/A% 30.28 in 10.0 mi Calm Calm - N/A   Overcast
12:35 PM - - N/A% 30.28 in 10.0 mi Calm Calm - N/A   Mostly Cloudy
12:55 PM - - N/A% 30.28 in 5.0 mi ESE 3.5 mph - N/A   Haze
1:15 PM - - N/A% 30.28 in 10.0 mi North 6.9 mph - N/A   Scattered Clouds
1:35 PM - - N/A% 30.28 in 10.0 mi North 6.9 mph - N/A   Overcast
1:55 PM - - N/A% 30.27 in 10.0 mi NW 5.8 mph - N/A   Scattered Clouds
2:15 PM - - N/A% 30.26 in 10.0 mi NNW 4.6 mph - N/A   Clear
2:35 PM - - N/A% 30.26 in 10.0 mi NNW 4.6 mph - N/A   Clear
2:55 PM - - N/A% 30.25 in 10.0 mi NNW 5.8 mph - N/A   Scattered Clouds
3:15 PM - - N/A% 30.25 in 10.0 mi NW 4.6 mph - N/A   Scattered Clouds
3:35 PM - - N/A% 30.25 in 10.0 mi NW 3.5 mph - N/A   Clear
3:55 PM - - N/A% 30.25 in 10.0 mi NNW 4.6 mph - N/A   Clear
4:15 PM - - N/A% 30.25 in 10.0 mi NNW 4.6 mph - N/A   Clear
4:35 PM - - N/A% 30.25 in 10.0 mi NW 3.5 mph - N/A   Clear
4:55 PM - - N/A% 30.25 in 10.0 mi North 4.6 mph - N/A   Clear
5:15 PM - - N/A% 30.25 in 10.0 mi North 4.6 mph - N/A   Clear
5:35 PM - - N/A% 30.25 in 10.0 mi Calm Calm - N/A   Clear
5:55 PM - - N/A% 30.25 in 10.0 mi North 3.5 mph - N/A   Clear
6:15 PM - - N/A% 30.25 in 10.0 mi Calm Calm - N/A   Clear
6:35 PM - - N/A% 30.25 in 10.0 mi Calm Calm - N/A   Clear
6:55 PM - - N/A% 30.25 in 10.0 mi Calm Calm - N/A   Clear
7:15 PM - - N/A% 30.26 in 10.0 mi Calm Calm - N/A   Clear
7:35 PM - - N/A% 30.26 in 7.0 mi Calm Calm - N/A   Clear
7:55 PM 56.8 °F 51.6 °F 83% 30.27 in 10.0 mi Calm Calm - N/A   Clear
8:15 PM 54.5 °F 50.0 °F 85% 30.27 in 10.0 mi Calm Calm - N/A   Clear
8:35 PM 54.5 °F 50.4 °F 86% 30.27 in 10.0 mi Calm Calm - N/A   Clear
8:55 PM 54.5 °F 50.5 °F 86% 30.27 in 10.0 mi Calm Calm - N/A   Clear
9:15 PM 54.5 °F 50.9 °F 88% 30.28 in 10.0 mi Calm Calm - N/A   Clear
9:35 PM 51.8 °F 48.6 °F 89% 30.28 in 10.0 mi Calm Calm - N/A   Clear
9:55 PM 52.9 °F 50.0 °F 90% 30.28 in 10.0 mi Calm Calm - N/A   Clear
10:15 PM 53.8 °F 50.9 °F 90% 30.28 in 10.0 mi Calm Calm - N/A   Clear
10:35 PM 51.8 °F 48.9 °F 90% 30.29 in 10.0 mi Calm Calm - N/A   Clear
10:55 PM 51.8 °F 49.1 °F 90% 30.29 in 10.0 mi Calm Calm - N/A   Clear
11:15 PM 51.8 °F 49.1 °F 90% 30.29 in 10.0 mi Calm Calm - N/A   Clear
11:35 PM 51.1 °F 48.2 °F 90% 30.29 in 10.0 mi Calm Calm - N/A   Clear
11:55 PM 49.3 °F 46.4 °F 90% 30.29 in 7.0 mi Calm Calm - N/A   Clear